Content
SEND FEEDBACK

Daily
Averages
Monthly
Summary
United States of America

FORT WINGATE, NEW MEXICO


Home > North America > United States > New Mexico
Elevation: 7079 feet     Latitude: 35 28N     Longitude: 108 32W

WEATHER
 
SELECT A DAY
Number of Records: 185,240;   Date Range: 1/1/95 - 10/30/14
 
SHARE

PRINT THIS DATA

[ ← Previous Day ]
WEATHER ALMANAC - JANUARY 3, 2013
[ Next Day → ]
[ °C ]   °F
Weather ElementAverageHighLow
Temperature15.9 °F30 °F (1:53 pm)5 °F (1:53 am)
Dewpoint5 °F12.9 °F (11:53 am)-2.9 °F (1:53 am)
Humidity63.2 %76 % (10:53 pm)47 % (1:53 pm)
Barometer30.50 in30.65 in (7:53 am)30.21 in (5:14 am)
Wind Speed6.3 mph18.4 mph (2:53 pm)
Weather ElementAverage
Visibility10 mi
Wind DirectionNNE (28.8 °)

Weather ElementTotal
Precipitation---
Heating Degree Days47.5 (Base 65)
Averaged from 25 records on January 3, 2013
WEATHER CONDITIONS BREAKOUT
WIND DIRECTION BREAKOUT
WEATHER BY HOUR - JANUARY 3, 2013
[ °C ]   °F
Local TimeTemperatureDewpointHumidityBarometerVisibilityWind DirectionWind SpeedGust SpeedPrecipitationEventsConditions
1:53 AM5.0 °F-2.9 °F70 %30.43 in10.0 miCalmClear
2:53 AM8.1 °F-0.9 °F67 %30.41 in10.0 miNE (40°)9.2 mphClear
3:53 AM8.1 °F-0.9 °F67 %30.42 in10.0 miENE (60°)10.4 mphClear
4:53 AM5.0 °F-2.0 °F73 %30.48 in10.0 miCalmClear
5:14 AM6.8 °F-2.2 °F67 %30.21 in9.0 miNNE (30°)5.8 mphMostly Cloudy
5:22 AM5.0 °F-2.2 °F72 %30.21 in10.0 miCalmScattered Clouds
5:53 AM6.1 °F-2.0 °F69 %30.52 in10.0 miEast (80°)3.5 mphClear
6:53 AM7.0 °F-0.9 °F70 %30.57 in10.0 miCalmClear
7:53 AM5.0 °F-2.0 °F73 %30.65 in10.0 miCalmClear
8:53 AM16.0 °F7.0 °F68 %30.57 in10.0 miEast (80°)8.1 mphClear
9:53 AM19.9 °F10.9 °F68 %30.58 in10.0 miENE (70°)4.6 mphClear
10:53 AM27.0 °F12.0 °F53 %30.53 in10.0 miENE (60°)9.2 mphClear
11:53 AM28.0 °F12.9 °F53 %30.52 in10.0 miNorth (10°)11.5 mph0.00 inClear
12:53 PM28.9 °F12.0 °F49 %30.47 in10.0 miNorth (10°)12.7 mph0.00 inClear
1:53 PM30.0 °F12.0 °F47 %30.48 in10.0 miNNE (20°)11.5 mph0.00 inClear
2:53 PM30.0 °F12.0 °F47 %30.47 in10.0 miNorth (10°)18.4 mphClear
3:53 PM28.9 °F10.9 °F47 %30.47 in10.0 miNorth (10°)15.0 mphClear
4:53 PM27.0 °F10.0 °F49 %30.52 in10.0 miNorth (10°)10.4 mphClear
5:53 PM21.9 °F10.0 °F60 %30.56 in10.0 miNNE (20°)6.9 mphClear
6:53 PM19.9 °F9.0 °F62 %30.57 in10.0 miENE (60°)9.2 mphClear
7:53 PM15.1 °F6.1 °F68 %30.64 in10.0 miCalmClear
8:53 PM16.0 °F7.0 °F68 %30.56 in10.0 miEast (100°)6.9 mphClear
9:53 PM14.0 °F5.0 °F67 %30.56 in10.0 miCalmClear
10:53 PM8.1 °F1.9 °F76 %30.55 in10.0 miCalmClear
11:53 PM10.0 °F1.9 °F70 %30.53 in10.0 miNE (50°)3.5 mphClear
Hourly data recorded from KGUP, located miles away from Fort Wingate, New Mexico







STORIES FROM OUR PARTNERS